This is the latest recevied weather packets stored in our database for station/object N2QKV-13. If no packets are shown the sender has not sent any weather packets the latest 10 day(s).
| Time | Temp. | Humidity | Pressure | Rain* | Wind** | Luminosity | Snow |
|---|---|---|---|---|---|---|---|
| 1778140203 | 11.67° C | 89% | 1009.3 hPa | 0.76 mm | - | - | - |
| 1778139904 | 11.67° C | 89% | 1009.5 hPa | 1.52 mm | - | - | - |
| 1778139604 | 11.67° C | 89% | 1009.3 hPa | 2.03 mm | - | - | - |
| 1778139304 | 11.67° C | 88% | 1009.2 hPa | 2.03 mm | - | - | - |
| 1778139004 | 11.67° C | 88% | 1009.1 hPa | 2.03 mm | - | - | - |
| 1778138704 | 12.22° C | 89% | 1009 hPa | 1.78 mm | - | - | - |
| 1778138403 | 12.22° C | 88% | 1009 hPa | 2.03 mm | - | - | - |
| 1778138104 | 12.78° C | 88% | 1009.2 hPa | 2.03 mm | - | - | - |
| 1778137803 | 12.78° C | 88% | 1008.9 hPa | 2.03 mm | - | - | - |
| 1778137503 | 12.78° C | 88% | 1009.1 hPa | 1.78 mm | - | - | - |
| 1778137204 | 13.33° C | 88% | 1009.3 hPa | 1.78 mm | - | - | - |
| 1778136903 | 13.33° C | 87% | 1008 hPa | 1.78 mm | - | - | - |
| 1778136603 | 13.89° C | 87% | 1009.5 hPa | 1.52 mm | - | - | - |
| 1778136304 | 13.89° C | 87% | 1009.1 hPa | 0.76 mm | - | - | - |
| 1778136004 | 13.89° C | 87% | 1008.7 hPa | 0.25 mm | - | - | - |
| 1778135703 | 14.44° C | 86% | 1008.6 hPa | 0.25 mm | - | - | - |
| 1778135404 | 14.44° C | 85% | 1008.3 hPa | 0.25 mm | - | - | - |
| 1778135103 | 14.44° C | 85% | 1008.1 hPa | 0.25 mm | - | - | - |
| 1778134804 | 15° C | 84% | 1008.8 hPa | 0 mm | - | - | - |
| 1778134504 | 15° C | 83% | 1009.2 hPa | 0 mm | - | - | - |
| 1778134203 | 15° C | 82% | 1009 hPa | 0 mm | - | - | - |
| 1778133903 | 15.56° C | 81% | 1008.8 hPa | 0 mm | - | - | - |
| 1778133604 | 15.56° C | 80% | 1008.3 hPa | 0 mm | - | - | - |
| 1778133303 | 15.56° C | 80% | 1008.1 hPa | 0 mm | - | - | - |
| 1778133004 | 16.11° C | 80% | 1008.1 hPa | 0 mm | - | - | - |
* Rain latest hour (hover to see other rain measurements)
** Current wind speed in m/s (hover to see current wind gust speed)